This is the latest recevied weather packets stored in our database for station/object N4NVD-13. If no packets are shown the sender has not sent any weather packets the latest 10 day(s).
| Time | Temp. | Humidity | Pressure | Rain* | Wind** | Luminosity | Snow |
|---|---|---|---|---|---|---|---|
| 1777916148 | 25° C | 70% | 1013.2 hPa | 0 mm | - | 884 W/m² | - |
| 1777915846 | 25.56° C | 71% | 1013.5 hPa | 0 mm | - | 428 W/m² | - |
| 1777915542 | 25.56° C | 69% | 1013.5 hPa | 0 mm | - | 543 W/m² | - |
| 1777915238 | 25° C | 71% | 1013.4 hPa | 0 mm | - | 910 W/m² | - |
| 1777914935 | 25.56° C | 70% | 1013.4 hPa | 0 mm | - | 618 W/m² | - |
| 1777914633 | 25° C | 70% | 1013.4 hPa | 0 mm | - | 798 W/m² | - |
| 1777914328 | 25.56° C | 70% | 1013.7 hPa | 0 mm | - | 784 W/m² | - |
| 1777914026 | 25° C | 72% | 1013.7 hPa | 0 mm | - | 752 W/m² | - |
| 1777913722 | 25° C | 71% | 1013.6 hPa | 0 mm | - | 621 W/m² | - |
| 1777913419 | 25° C | 72% | 1013.7 hPa | 0 mm | - | 761 W/m² | - |
| 1777913115 | 25° C | 72% | 1013.8 hPa | 0 mm | - | 815 W/m² | - |
| 1777912812 | 24.44° C | 73% | 1014 hPa | 0 mm | - | 623 W/m² | - |
| 1777912508 | 24.44° C | 72% | 1013.8 hPa | 0 mm | - | 670 W/m² | - |
| 1777912205 | 24.44° C | 75% | 1014 hPa | 0 mm | - | 674 W/m² | - |
| 1777911901 | 24.44° C | 73% | 1014.1 hPa | 0 mm | - | 777 W/m² | - |
| 1777911597 | 23.89° C | 73% | 1014.2 hPa | 0 mm | - | 801 W/m² | - |
| 1777911293 | 23.89° C | 74% | 1014.1 hPa | 0 mm | - | 713 W/m² | - |
| 1777910990 | 23.89° C | 73% | 1014.2 hPa | 0 mm | - | 834 W/m² | - |
| 1777910689 | 23.89° C | 74% | 1014.3 hPa | 0 mm | - | 831 W/m² | - |
| 1777910384 | 23.89° C | 76% | 1014.3 hPa | 0 mm | - | 801 W/m² | - |
| 1777910081 | 23.89° C | 78% | 1014.2 hPa | 0 mm | - | 760 W/m² | - |
| 1777909779 | 22.78° C | 77% | 1014.3 hPa | 0 mm | - | 757 W/m² | - |
| 1777909475 | 22.78° C | 77% | 1014.4 hPa | 0 mm | - | 871 W/m² | - |
| 1777909173 | 22.78° C | 77% | 1014.5 hPa | 0 mm | - | 766 W/m² | - |
| 1777908871 | 22.78° C | 76% | 1014.7 hPa | 0 mm | - | 878 W/m² | - |
* Rain latest hour (hover to see other rain measurements)
** Current wind speed in m/s (hover to see current wind gust speed)